Weather History for McAlester, OK

Change the Weather History Date:

Wednesday, December 5, 2012

  Actual Average Record
Temperature  
Mean Temperature 48 °F -  
Max Temperature 64 °F 56 °F 78 °F (1956)
Min Temperature 32 °F 36 °F 19 °F (2005)
Degree Days  
Heating Degree Days 17    
Moisture  
Dew Point 31 °F    
Average Humidity 55    
Maximum Humidity 92    
Minimum Humidity 26    
Precipitation  
Precipitation 0.00 in - - ()
Sea Level Pressure  
Sea Level Pressure 30.20 in    
Wind  
Wind Speed 3 mph (ENE)    
Max Wind Speed 7 mph    
Max Gust Speed -    
Visibility 10 miles    
Events      
Averages and records for this station are not official NWS values.
T = Trace of Precipitation, MM = Missing Value Source: NWS Daily Summary

Daily Weather History Graph

Daily Weather History Graph

Search for Another Location

Airport:

Trip Planner

Search our weather history database for the weather conditions in past years. The results will help you decide how hot, cold, wet, or windy it might be!

Date:

Astronomy

Dec. 05, 2012 Rise Set
Actual Time 7:16 AM CST 5:11 PM CST
Civil Twilight 6:48 AM CST 5:39 PM CST
Nautical Twilight 6:17 AM CST 6:10 PM CST
Astronomical Twilight 5:46 AM CST 6:41 PM CST
Moon 11:50 PM CST (12/5) 11:51 AM CST (12/5)
Length of Visible Light 10h 50m
Length of Day
9h 55m
Waning Gibbous, 59% of the Moon is Illuminated
Dec 5
Waning Gibbous
Dec 6
Last Quarter
Dec 13
New
Dec 19
First Quarter
Dec 28
Full

Hourly Weather History & Observations

Time (CST) Temp. Windchill Dew Point Humidity Pressure Visibility Wind Dir Wind Speed Gust Speed Precip Events Conditions
12:53 AM 46.9 °F - 33.1 °F 59% 30.28 in 10.0 mi NE 5.8 mph - N/A   Clear
1:53 AM 39.9 °F - 32.0 °F 73% 30.28 in 10.0 mi Calm Calm - N/A   Clear
2:53 AM 35.1 °F - 30.0 °F 82% 30.31 in 10.0 mi Calm Calm - N/A   Clear
3:53 AM 33.1 °F 28.7 °F 30.0 °F 89% 30.31 in 10.0 mi NNE 4.6 mph - N/A   Clear
4:53 AM 37.0 °F - 33.1 °F 86% 30.29 in 10.0 mi Calm Calm - N/A   Clear
5:53 AM 32.0 °F - 30.0 °F 92% 30.29 in 10.0 mi Calm Calm - N/A   Scattered Clouds
6:53 AM 35.1 °F 32.2 °F 32.0 °F 89% 30.30 in 10.0 mi NE 3.5 mph - N/A   Clear
8:53 AM 46.9 °F - 35.1 °F 63% 30.32 in 10.0 mi ENE 3.5 mph - N/A   Partly Cloudy
9:53 AM 52.0 °F - 32.0 °F 47% 30.31 in 10.0 mi East 5.8 mph - N/A   Partly Cloudy
10:53 AM 57.0 °F - 30.0 °F 36% 30.29 in 10.0 mi ESE 5.8 mph - N/A   Scattered Clouds
11:53 AM 60.1 °F - 28.0 °F 30% 30.25 in 10.0 mi East 6.9 mph - N/A   Clear
12:53 PM 62.1 °F - 28.0 °F 28% 30.20 in 10.0 mi Calm Calm - N/A   Scattered Clouds
1:53 PM 64.4 °F - 28.4 °F 26% 30.17 in 10.0 mi NNE 5.8 mph - N/A   Partly Cloudy
2:53 PM 64.9 °F - 28.9 °F 26% 30.15 in 10.0 mi NE 4.6 mph - N/A   Clear
3:53 PM 63.0 °F - 28.9 °F 28% 30.14 in 10.0 mi Calm Calm - N/A   Clear
4:53 PM 60.1 °F - 30.0 °F 32% 30.13 in 10.0 mi East 4.6 mph - N/A   Scattered Clouds
5:53 PM 57.0 °F - 30.0 °F 36% 30.11 in 10.0 mi East 5.8 mph - N/A   Scattered Clouds
6:53 PM 55.0 °F - 30.9 °F 40% 30.11 in 10.0 mi East 3.5 mph - N/A   Clear
7:53 PM 51.1 °F - 30.9 °F 46% 30.11 in 10.0 mi SE 5.8 mph - N/A   Clear
8:53 PM 52.0 °F - 33.1 °F 49% 30.08 in 10.0 mi SE 4.6 mph - N/A   Clear
9:53 PM 44.1 °F - 33.1 °F 65% 30.07 in 10.0 mi Calm Calm - N/A   Clear
10:53 PM 44.1 °F - 35.1 °F 71% 30.06 in 10.0 mi Calm Calm - N/A   Scattered Clouds
11:53 PM 39.9 °F - 35.1 °F 83% 30.06 in 10.0 mi Calm Calm - N/A   Partly Cloudy